Time,TemperatureF,DewpointF,PressureIn,WindDirection,WindDirectionDegrees,WindSpeedMPH,WindSpeedGustMPH,Humidity,HourlyPrecipIn,Conditions,Clouds,dailyrainin,SoftwareType,DateUTC
2013-09-26 00:13:00,67.0,46.0,29.63,SSE,162,0.0,2.0,47,0.00,,,0.00,,2013-09-26 06:13:00,
2013-09-26 00:22:00,67.0,47.0,29.63,SE,138,0.0,0.0,49,0.00,,,0.00,,2013-09-26 06:22:00,
2013-09-26 00:42:00,67.0,48.0,29.63,SE,131,0.0,0.0,51,0.00,,,0.00,,2013-09-26 06:42:00,
2013-09-26 00:53:00,65.0,48.0,29.63,SE,131,0.0,0.0,54,0.00,,,0.00,,2013-09-26 06:53:00,
2013-09-26 01:12:00,64.0,49.0,29.63,SE,131,0.0,0.0,58,0.00,,,0.00,,2013-09-26 07:12:00,
2013-09-26 01:22:00,63.0,48.0,29.63,SE,131,0.0,0.0,58,0.00,,,0.00,,2013-09-26 07:22:00,
2013-09-26 01:42:00,62.0,48.0,29.63,SE,131,0.0,0.0,61,0.00,,,0.00,,2013-09-26 07:42:00,
2013-09-26 01:53:00,62.0,50.0,29.64,SE,131,0.0,0.0,64,0.00,,,0.00,,2013-09-26 07:53:00,
2013-09-26 02:11:00,61.0,50.0,29.64,SE,131,0.0,0.0,66,0.00,,,0.00,,2013-09-26 08:11:00,
2013-09-26 02:22:00,61.0,51.0,29.64,SE,131,0.0,0.0,69,0.00,,,0.00,,2013-09-26 08:22:00,
2013-09-26 02:42:00,60.0,51.0,29.64,SE,131,0.0,0.0,72,0.00,,,0.00,,2013-09-26 08:42:00,
2013-09-26 02:52:00,60.0,51.0,29.65,SE,131,0.0,0.0,72,0.00,,,0.00,,2013-09-26 08:52:00,
2013-09-26 03:11:00,59.0,51.0,29.65,SE,131,0.0,0.0,74,0.00,,,0.00,,2013-09-26 09:11:00,
2013-09-26 03:22:00,58.0,51.0,29.65,SE,131,0.0,0.0,77,0.00,,,0.00,,2013-09-26 09:22:00,
2013-09-26 03:43:00,58.0,51.0,29.65,SE,131,0.0,0.0,78,0.00,,,0.00,,2013-09-26 09:43:00,
2013-09-26 03:53:00,58.0,51.0,29.64,SE,131,0.0,0.0,78,0.00,,,0.00,,2013-09-26 09:53:00,
2013-09-26 04:12:00,57.0,51.0,29.64,SE,131,0.0,0.0,79,0.00,,,0.00,,2013-09-26 10:12:00,
2013-09-26 04:23:00,57.0,51.0,29.64,SE,131,0.0,0.0,79,0.00,,,0.00,,2013-09-26 10:23:00,
2013-09-26 04:42:00,57.0,51.0,29.64,SE,131,0.0,0.0,80,0.00,,,0.00,,2013-09-26 10:42:00,
2013-09-26 04:53:00,56.0,50.0,29.64,SE,131,0.0,0.0,80,0.00,,,0.00,,2013-09-26 10:53:00,
2013-09-26 05:12:00,56.0,51.0,29.65,SE,131,0.0,0.0,83,0.00,,,0.00,,2013-09-26 11:12:00,
2013-09-26 05:22:00,55.0,50.0,29.65,SE,131,0.0,0.0,84,0.00,,,0.00,,2013-09-26 11:22:00,
2013-09-26 05:42:00,55.0,50.0,29.65,WNW,283,0.0,1.0,83,0.00,,,0.00,,2013-09-26 11:42:00,
2013-09-26 05:52:00,55.0,50.0,29.66,WNW,282,0.0,0.0,83,0.00,,,0.00,,2013-09-26 11:52:00,
2013-09-26 06:12:00,55.0,50.0,29.66,WNW,282,0.0,0.0,83,0.00,,,0.00,,2013-09-26 12:12:00,
2013-09-26 06:22:00,54.0,49.0,29.67,WNW,282,0.0,0.0,83,0.00,,,0.00,,2013-09-26 12:22:00,
2013-09-26 06:42:00,54.0,49.0,29.67,WNW,283,0.0,1.0,84,0.00,,,0.00,,2013-09-26 12:42:00,
2013-09-26 06:52:00,54.0,49.0,29.67,WNW,287,0.0,1.0,83,0.00,,,0.00,,2013-09-26 12:52:00,
2013-09-26 07:11:00,54.0,49.0,29.68,SW,233,0.0,1.0,82,0.00,,,0.00,,2013-09-26 13:11:00,
2013-09-26 07:22:00,54.0,49.0,29.68,SW,233,0.0,0.0,84,0.00,,,0.00,,2013-09-26 13:22:00,
2013-09-26 07:42:00,53.0,49.0,29.68,SW,233,0.0,0.0,85,0.00,,,0.00,,2013-09-26 13:42:00,
2013-09-26 07:52:00,53.0,49.0,29.69,SW,233,0.0,0.0,86,0.00,,,0.00,,2013-09-26 13:52:00,
2013-09-26 08:11:00,54.0,50.0,29.69,SSW,205,0.0,1.0,87,0.00,,,0.00,,2013-09-26 14:11:00,
2013-09-26 08:22:00,56.0,52.0,29.70,NNW,347,0.0,0.0,86,0.00,,,0.00,,2013-09-26 14:22:00,
2013-09-26 08:42:00,57.0,53.0,29.70,NNW,347,0.0,0.0,85,0.00,,,0.00,,2013-09-26 14:42:00,
2013-09-26 08:52:00,58.0,53.0,29.70,NNW,347,0.0,0.0,83,0.00,,,0.00,,2013-09-26 14:52:00,
2013-09-26 09:11:00,59.0,54.0,29.71,NNW,347,0.0,0.0,83,0.00,,,0.00,,2013-09-26 15:11:00,
2013-09-26 09:22:00,61.0,55.0,29.71,NW,315,0.0,1.0,82,0.00,,,0.00,,2013-09-26 15:22:00,
2013-09-26 09:44:00,63.0,53.0,29.71,NW,314,0.0,0.0,71,0.00,,,0.00,,2013-09-26 15:44:00,
2013-09-26 09:53:00,67.0,54.0,29.72,NW,315,0.0,0.0,64,0.00,,,0.00,,2013-09-26 15:53:00,
2013-09-26 10:13:00,71.0,54.0,29.72,NW,315,0.0,0.0,54,0.00,,,0.00,,2013-09-26 16:13:00,
2013-09-26 10:43:00,75.0,52.0,29.72,SW,236,0.0,2.0,45,0.00,,,0.00,,2013-09-26 16:43:00,
2013-09-26 10:53:00,77.0,46.0,29.71,SSE,158,0.0,2.0,34,0.00,,,0.00,,2013-09-26 16:53:00,
2013-09-26 11:12:00,79.0,42.0,29.72,NNW,335,0.0,3.0,27,0.00,,,0.00,,2013-09-26 17:12:00,
2013-09-26 11:23:00,79.0,42.0,29.72,NNW,335,0.0,3.0,27,0.00,,,0.00,,2013-09-26 17:23:00,
2013-09-26 11:52:00,81.0,40.0,29.71,ENE,75,0.0,3.0,23,0.00,,,0.00,,2013-09-26 17:52:00,
2013-09-26 12:13:00,82.0,42.0,29.71,ENE,76,0.0,3.0,24,0.00,,,0.00,,2013-09-26 18:13:00,
2013-09-26 12:42:00,83.0,42.0,29.70,NW,311,0.0,5.0,24,0.00,,,0.00,,2013-09-26 18:42:00,
2013-09-26 12:52:00,84.0,42.0,29.70,SE,124,1.0,6.0,23,0.00,,,0.00,,2013-09-26 18:52:00,
2013-09-26 13:12:00,85.0,42.0,29.69,SSE,150,1.0,7.0,22,0.00,,,0.00,,2013-09-26 19:12:00,
2013-09-26 13:22:00,86.0,43.0,29.68,West,267,2.0,8.0,22,0.00,,,0.00,,2013-09-26 19:22:00,
2013-09-26 13:43:00,85.0,39.0,29.67,North,350,1.0,6.0,20,0.00,,,0.00,,2013-09-26 19:43:00,
2013-09-26 13:52:00,86.0,44.0,29.66,NE,51,1.0,5.0,23,0.00,,,0.00,,2013-09-26 19:52:00,
2013-09-26 14:12:00,87.0,42.0,29.66,SE,132,0.0,7.0,21,0.00,,,0.00,,2013-09-26 20:12:00,
2013-09-26 14:22:00,86.0,41.0,29.65,SSE,162,1.0,5.0,21,0.00,,,0.00,,2013-09-26 20:22:00,
2013-09-26 14:43:00,87.0,45.0,29.65,West,259,1.0,5.0,23,0.00,,,0.00,,2013-09-26 20:43:00,
2013-09-26 14:52:00,87.0,42.0,29.64,NW,307,1.0,4.0,21,0.00,,,0.00,,2013-09-26 20:52:00,
2013-09-26 15:12:00,87.0,45.0,29.64,SW,222,0.0,4.0,23,0.00,,,0.00,,2013-09-26 21:12:00,
2013-09-26 15:23:00,87.0,42.0,29.63,WNW,302,0.0,6.0,21,0.00,,,0.00,,2013-09-26 21:23:00,
2013-09-26 15:44:00,87.0,45.0,29.62,South,183,1.0,5.0,23,0.00,,,0.00,,2013-09-26 21:44:00,
2013-09-26 15:54:00,87.0,42.0,29.62,SSE,167,2.0,9.0,21,0.00,,,0.00,,2013-09-26 21:54:00,
2013-09-26 16:14:00,87.0,45.0,29.61,NNE,29,1.0,4.0,23,0.00,,,0.00,,2013-09-26 22:14:00,
2013-09-26 16:24:00,87.0,46.0,29.61,NNW,345,1.0,6.0,24,0.00,,,0.00,,2013-09-26 22:24:00,
2013-09-26 16:43:00,86.0,45.0,29.60,SSE,162,0.0,5.0,24,0.00,,,0.00,,2013-09-26 22:43:00,
2013-09-26 16:54:00,87.0,45.0,29.60,SW,217,0.0,5.0,23,0.00,,,0.00,,2013-09-26 22:54:00,
2013-09-26 17:12:00,87.0,46.0,29.60,SSE,162,1.0,4.0,24,0.00,,,0.00,,2013-09-26 23:12:00,
2013-09-26 17:23:00,86.0,45.0,29.59,NE,50,0.0,5.0,24,0.00,,,0.00,,2013-09-26 23:23:00,
2013-09-26 17:53:00,85.0,50.0,29.58,NE,37,0.0,2.0,30,0.00,,,0.00,,2013-09-26 23:53:00,
2013-09-26 18:22:00,82.0,47.0,29.58,SSE,153,0.0,3.0,29,0.00,,,0.00,,2013-09-27 00:22:00,
2013-09-26 18:43:00,82.0,47.0,29.58,SW,236,0.0,3.0,30,0.00,,,0.00,,2013-09-27 00:43:00,
2013-09-26 18:52:00,80.0,48.0,29.58,West,276,0.0,2.0,33,0.00,,,0.00,,2013-09-27 00:52:00,
2013-09-26 20:43:00,71.0,51.0,29.59,NNW,348,0.0,0.0,49,0.00,,,0.00,,2013-09-27 02:43:00,
2013-09-26 20:53:00,71.0,51.0,29.59,North,349,0.0,0.0,49,0.00,,,0.00,,2013-09-27 02:53:00,
2013-09-26 21:12:00,71.0,51.0,29.60,North,349,0.0,0.0,50,0.00,,,0.00,,2013-09-27 03:12:00,
2013-09-26 21:22:00,71.0,51.0,29.61,North,349,0.0,0.0,50,0.00,,,0.00,,2013-09-27 03:22:00,
2013-09-26 21:44:00,72.0,52.0,29.62,NNW,337,0.0,0.0,50,0.00,,,0.00,,2013-09-27 03:44:00,
2013-09-26 21:55:00,72.0,53.0,29.62,NNW,337,0.0,0.0,51,0.00,,,0.00,,2013-09-27 03:55:00,
2013-09-26 22:14:00,71.0,52.0,29.62,NNW,337,0.0,0.0,52,0.00,,,0.00,,2013-09-27 04:14:00,
2013-09-26 22:24:00,70.0,54.0,29.63,NNW,337,0.0,0.0,56,0.00,,,0.00,,2013-09-27 04:24:00,
2013-09-26 22:44:00,70.0,52.0,29.63,NNW,337,0.0,0.0,53,0.00,,,0.00,,2013-09-27 04:44:00,
2013-09-26 22:54:00,69.0,52.0,29.63,NNW,337,0.0,0.0,54,0.00,,,0.00,,2013-09-27 04:54:00,
2013-09-26 23:13:00,69.0,52.0,29.63,NNW,337,0.0,0.0,55,0.00,,,0.00,,2013-09-27 05:13:00,
2013-09-26 23:23:00,68.0,52.0,29.63,NNW,338,0.0,0.0,56,0.00,,,0.00,,2013-09-27 05:23:00,
2013-09-26 23:43:00,68.0,54.0,29.63,NNW,338,0.0,0.0,60,0.00,,,0.00,,2013-09-27 05:43:00,
2013-09-26 23:52:00,68.0,53.0,29.63,NNW,337,0.0,0.0,58,0.00,,,0.00,,2013-09-27 05:52:00,